Weather History for KSNA - January, 2012

Change the Weather History Date:

Saturday, January 21, 2012

  Actual Average Record
Temperature  
Mean Temperature 60 °F 57 °F  
Max Temperature 64 °F 67 °F 77 °F (2013)
Min Temperature 55 °F 47 °F 39 °F (2006)
Degree Days  
Heating Degree Days 5 8  
Month to date heating degree days 125 179  
Since 1 July heating degree days 572 611  
Cooling Degree Days 0 0  
Month to date cooling degree days 3 0  
Year to date cooling degree days 3 0  
Growing Degree Days 8 (Base 50)    
Moisture  
Dew Point 50 °F    
Average Humidity 77    
Maximum Humidity 93    
Minimum Humidity 60    
Precipitation  
Precipitation 0.42 in 0.09 in 0.72 in (2010)
Month to date precipitation 0.54 2.34  
Year to date precipitation 0.54 2.34  
Since 1 July precipitation 2.99  
Snow  
Snow 0.00 in - - ()
Month to date snowfall 0.0  
Year to date snowfall 0.0  
Since 1 July snowfall 0.0  
Snow Depth 0.00 in    
Sea Level Pressure  
Sea Level Pressure 30.04 in    
Wind  
Wind Speed 7 mph (South)    
Max Wind Speed 16 mph    
Max Gust Speed 21 mph    
Visibility 6 miles    
Events Rain    
T = Trace of Precipitation, MM = Missing Value Source: NWS Daily Summary

Daily Weather History Graph

Daily Weather History Graph

Search for Another Location

Airport or City:

Trip Planner

Search our weather history database for the weather conditions in past years. The results will help you decide how hot, cold, wet, or windy it might be!

Date:

Astronomy

Jan. 21, 2012 Rise Set
Actual Time 6:54 AM PST 5:11 PM PST
Civil Twilight 6:27 AM PST 5:38 PM PST
Nautical Twilight 5:57 AM PST 6:08 PM PST
Astronomical Twilight 5:27 AM PST 6:38 PM PST
Moon 5:26 AM PST (1/21) 3:54 PM PST (1/21)
Length of Visible Light 11h 10m
Length of Day
10h 17m
Waning Crescent, 3% of the Moon is Illuminated
Jan 21
Waning Crescent
Jan 22
New
Jan 30
First Quarter
Feb 7
Full
Feb 14
Last Quarter

Hourly Weather History & Observations

Time (PST) Temp. Dew Point Humidity Pressure Visibility Wind Dir Wind Speed Gust Speed Precip Events Conditions
12:53 AM 57.0 °F 48.9 °F 74% 30.07 in 10.0 mi SE 3.5 mph - N/A   Overcast
1:25 AM 57.2 °F 48.2 °F 72% 30.07 in 10.0 mi SE 4.6 mph - N/A   Overcast
1:53 AM 57.0 °F 48.9 °F 74% 30.06 in 10.0 mi Calm Calm - N/A   Overcast
2:31 AM 57.2 °F 48.2 °F 72% 30.04 in 10.0 mi SE 3.5 mph - N/A   Overcast
2:53 AM 57.0 °F 50.0 °F 77% 30.03 in 9.0 mi Calm Calm - N/A   Overcast
3:11 AM 55.4 °F 51.8 °F 88% 30.03 in 4.0 mi SSW 3.5 mph - N/A   Haze
3:23 AM 55.4 °F 51.8 °F 88% 30.01 in 2.0 mi South 3.5 mph - N/A   Overcast
3:49 AM 55.4 °F 53.6 °F 94% 30.02 in 1.8 mi SSW 3.5 mph - N/A   Overcast
3:53 AM 55.0 °F 53.1 °F 93% 30.03 in 2.0 mi SSW 3.5 mph - N/A   Overcast
4:06 AM 55.4 °F 51.8 °F 88% 30.02 in 3.0 mi South 6.9 mph - 0.00 in Rain Light Rain
4:14 AM 55.4 °F 51.8 °F 88% 30.03 in 3.0 mi South 8.1 mph - 0.00 in Rain Light Rain
4:19 AM 55.4 °F 51.8 °F 88% 30.03 in 2.5 mi South 6.9 mph - 0.00 in Rain Light Rain
4:43 AM 55.4 °F 51.8 °F 88% 30.03 in 1.8 mi South 4.6 mph - 0.01 in Rain Light Rain
4:53 AM 55.0 °F 52.0 °F 89% 30.04 in 1.8 mi South 4.6 mph - 0.01 in Rain Light Rain
5:03 AM 55.4 °F 51.8 °F 88% 30.03 in 1.5 mi Calm Calm - 0.01 in Rain Light Rain
5:21 AM 55.4 °F 51.8 °F 88% 30.02 in 2.0 mi South 6.9 mph - 0.03 in Rain Light Rain
5:53 AM 55.0 °F 52.0 °F 89% 30.01 in 2.0 mi South 5.8 mph - 0.08 in Rain Light Rain
6:16 AM 55.4 °F 51.8 °F 88% 30.01 in 1.8 mi South 4.6 mph - 0.06 in Rain Rain
6:23 AM 55.4 °F 51.8 °F 88% 30.02 in 2.0 mi South 5.8 mph - 0.07 in Rain Light Rain
6:53 AM 55.9 °F 53.1 °F 90% 30.04 in 2.0 mi Calm Calm - 0.16 in Rain Heavy Rain
7:53 AM 55.0 °F 52.0 °F 89% 30.04 in 2.0 mi ESE 9.2 mph - 0.08 in Rain Light Rain
7:59 AM 55.4 °F 51.8 °F 88% 30.04 in 1.5 mi ESE 6.9 mph - 0.00 in Rain Light Rain
8:53 AM 57.9 °F 55.0 °F 90% 30.05 in 1.5 mi SSW 10.4 mph - 0.07 in Rain Light Rain
9:53 AM 57.9 °F 55.9 °F 93% 30.07 in 1.5 mi SSW 12.7 mph - 0.02 in Rain Light Rain
10:10 AM 59.0 °F 55.4 °F 88% 30.06 in 5.0 mi South 12.7 mph - 0.00 in   Mostly Cloudy
10:21 AM 60.8 °F 57.2 °F 88% 30.06 in 5.0 mi SSW 9.2 mph - 0.00 in   Mostly Cloudy
10:53 AM 61.0 °F 55.9 °F 83% 30.06 in 7.0 mi West 6.9 mph 17.3 mph 0.00 in   Mostly Cloudy
11:22 AM 60.8 °F 55.4 °F 82% 30.04 in 8.0 mi WSW 8.1 mph - N/A   Mostly Cloudy
11:53 AM 61.0 °F 54.0 °F 78% 30.04 in 7.0 mi West 8.1 mph - N/A   Mostly Cloudy
12:44 PM 62.6 °F 53.6 °F 72% 30.03 in 7.0 mi SW 9.2 mph 17.3 mph N/A   Mostly Cloudy
12:53 PM 62.1 °F 52.0 °F 70% 30.04 in 7.0 mi West 11.5 mph 18.4 mph N/A   Mostly Cloudy
1:26 PM 62.6 °F 51.8 °F 68% 30.04 in 9.0 mi WSW 8.1 mph 18.4 mph N/A   Mostly Cloudy
1:53 PM 62.6 °F 48.2 °F 59% 30.02 in 10.0 mi SW 12.7 mph 20.7 mph N/A   Mostly Cloudy
2:53 PM 61.0 °F 46.0 °F 58% 30.01 in 10.0 mi West 9.2 mph - N/A   Mostly Cloudy
3:53 PM 61.0 °F 44.1 °F 54% 30.01 in 10.0 mi WSW 6.9 mph - N/A   Scattered Clouds
4:53 PM 60.1 °F 44.1 °F 55% 30.01 in 10.0 mi SW 6.9 mph - N/A   Mostly Cloudy
5:53 PM 57.0 °F 44.1 °F 62% 30.02 in 10.0 mi South 4.6 mph - N/A   Scattered Clouds
6:53 PM 55.4 °F 44.6 °F 67% 30.03 in 10.0 mi ESE 8.1 mph - N/A   Partly Cloudy
7:53 PM 55.0 °F 45.0 °F 69% 30.05 in 10.0 mi ESE 4.6 mph - N/A   Partly Cloudy
8:53 PM 54.0 °F 45.0 °F 72% 30.07 in 10.0 mi East 8.1 mph - N/A   Scattered Clouds
9:53 PM 53.1 °F 45.0 °F 74% 30.07 in 10.0 mi East 4.6 mph - N/A   Mostly Cloudy
10:53 PM 53.1 °F 45.0 °F 74% 30.09 in 10.0 mi East 6.9 mph - N/A   Mostly Cloudy
11:53 PM 51.1 °F 44.1 °F 77% 30.10 in 10.0 mi Calm Calm - N/A   Clear